アトラス彗星

C/2017 T3 ( ATLAS )

English version
Home page
Updated on May 20, 2019

---------------------------------------------------------------------

・ プロフィール

発見日 2017年10月14日
発見光度 18.3等
発見者 Asteroid Terrestrial-impact Last Alert System (ATLAS) search program

・ 写真集

・ 軌道要素

Epoch 2018 July 21.0 TT = JDT 2458320.5
T 2018 July 19.14943 TT                                 MPCW
q   0.8254439            (2000.0)            P               Q
z  +0.0009091      Peri.  246.87427     +0.22871978     -0.60002741
                   Node   230.08563     +0.65986965     -0.48339156
e   0.9992496      Incl.   88.10825     -0.71572293     -0.63741643
From 521 observations 2017 Sept. 11-2019 Feb. 28, mean residual 0".5.
     Nongravitational parameters A1 = +5.03, A2 = +0.5569.

・ 星図

・ 光度変化

        m1 = 9.0 + 5 logΔ + 10.0 log r  [ ,0]  (              〜2018年 7月19日)
        m1 = 9.4 + 5 logΔ + 15.0 log r  [0, ]  (2018年 7月19日〜              )

---------------------------------------------------------------------

軌道要素はM.P.E.C. 2019-J142に掲載されたものです。
星図はステラナビゲータ Ver.10 (アストロアーツ) で作成したものです。
光度グラフはComet for Windowsで作成したものです。

---------------------------------------------------------------------

Copyright(C) Seiichi Yoshida (comet@aerith.net). All rights reserved.